UAL1369 KORD-KDCA

Flight info

Callsign UAL1369
Flight time 1h 20m
Altitude 35000
Route MOBLE ADIME OTENS ANEWA JERRI NUSMM BUCKO FRDMM6
Aircraft B38M/M-SDE1FGHILORVWXY/HB1

Departure

Time 2026-04-20 01:05
Airport Chicago O'Hare International Airport (KORD)

Arrival

Time 2026-04-20 02:26
Airport Ronald Reagan Washington National Airport (KDCA)
Time Latitude Longitude Altitude Speed Heading
2026-04-20 00:43 41.97957 -87.91110 672 ft 0 kts 123°
2026-04-20 00:52 41.97962 -87.91120 671 ft 4 kts 118°
2026-04-20 00:52 41.97970 -87.91153 671 ft 4 kts 91°
2026-04-20 00:52 41.97968 -87.91188 673 ft 4 kts 91°
2026-04-20 00:52 41.97974 -87.91213 671 ft 4 kts 126°
2026-04-20 00:53 41.97992 -87.91233 669 ft 4 kts 175°
2026-04-20 00:53 41.98014 -87.91222 671 ft 4 kts 218°
2026-04-20 00:53 41.98030 -87.91206 670 ft 0 kts 206°
2026-04-20 00:55 41.98026 -87.91197 672 ft 2 kts 88°
2026-04-20 00:55 41.98034 -87.91192 672 ft 0 kts 16°
2026-04-20 00:56 41.98038 -87.91191 663 ft 2 kts 17°
2026-04-20 00:56 41.98083 -87.91162 673 ft 12 kts 31°
2026-04-20 00:56 41.98161 -87.91081 673 ft 16 kts 47°
2026-04-20 00:57 41.98224 -87.90947 672 ft 18 kts 62°
2026-04-20 00:57 41.98272 -87.90782 669 ft 20 kts 78°
2026-04-20 00:57 41.98291 -87.90583 670 ft 23 kts 89°
2026-04-20 00:57 41.98290 -87.90365 671 ft 24 kts 90°
2026-04-20 00:58 41.98291 -87.90136 671 ft 25 kts 90°
2026-04-20 00:58 41.98291 -87.89944 672 ft 19 kts 90°
2026-04-20 00:58 41.98292 -87.89759 672 ft 21 kts 89°
2026-04-20 00:58 41.98276 -87.89562 670 ft 22 kts 124°
2026-04-20 00:59 41.98167 -87.89406 673 ft 23 kts 135°
2026-04-20 00:59 41.98065 -87.89336 673 ft 18 kts 206°
2026-04-20 00:59 41.98014 -87.89402 673 ft 9 kts 231°
2026-04-20 00:59 41.97969 -87.89476 672 ft 11 kts 228°
2026-04-20 01:00 41.97895 -87.89523 673 ft 13 kts 185°
2026-04-20 01:00 41.97794 -87.89523 673 ft 16 kts 180°
2026-04-20 01:00 41.97675 -87.89523 673 ft 18 kts 180°
2026-04-20 01:00 41.97541 -87.89522 673 ft 20 kts 180°
2026-04-20 01:01 41.97397 -87.89543 673 ft 22 kts 202°
2026-04-20 01:01 41.97277 -87.89599 673 ft 17 kts 160°
2026-04-20 01:01 41.97199 -87.89483 673 ft 19 kts 101°
2026-04-20 01:01 41.97196 -87.89301 673 ft 20 kts 89°
2026-04-20 01:02 41.97192 -87.89102 673 ft 22 kts 91°
2026-04-20 01:02 41.97197 -87.88887 673 ft 24 kts 90°
2026-04-20 01:02 41.97197 -87.88657 672 ft 25 kts 88°
2026-04-20 01:02 41.97196 -87.88413 673 ft 27 kts 90°
2026-04-20 01:03 41.97200 -87.88154 673 ft 28 kts 91°
2026-04-20 01:03 41.97109 -87.88031 672 ft 18 kts 181°
2026-04-20 01:03 41.97087 -87.88032 672 ft 0 kts 180°
2026-04-20 01:04 41.97077 -87.88032 672 ft 3 kts 180°
2026-04-20 01:04 41.97038 -87.88030 672 ft 11 kts 175°
2026-04-20 01:04 41.96933 -87.88049 672 ft 18 kts 220°
2026-04-20 01:05 41.96814 -87.88187 670 ft 33 kts 221°
2026-04-20 01:05 41.96420 -87.88654 672 ft 116 kts 221°
2026-04-20 01:05 41.95640 -87.89597 719 ft 179 kts 223°
2026-04-20 01:05 41.94660 -87.90777 1462 ft 195 kts 220°
2026-04-20 01:06 41.93436 -87.91612 2483 ft 208 kts 195°
2026-04-20 01:06 41.91846 -87.91510 2881 ft 247 kts 160°
2026-04-20 01:06 41.90327 -87.90341 3716 ft 268 kts 142°
2026-04-20 01:06 41.88878 -87.88610 4432 ft 283 kts 136°
2026-04-20 01:07 41.87454 -87.86776 4864 ft 283 kts 136°
2026-04-20 01:07 41.86037 -87.84951 5033 ft 282 kts 136°
2026-04-20 01:07 41.84623 -87.83128 5031 ft 282 kts 136°
2026-04-20 01:07 41.83242 -87.81253 5227 ft 284 kts 125°
2026-04-20 01:08 41.82607 -87.78833 6262 ft 273 kts 88°
2026-04-20 01:08 41.82888 -87.76326 7297 ft 275 kts 71°
2026-04-20 01:08 41.83357 -87.73783 8201 ft 284 kts 73°
2026-04-20 01:08 41.83811 -87.71181 9222 ft 290 kts 73°
2026-04-20 01:09 41.84270 -87.68507 10143 ft 298 kts 73°
2026-04-20 01:09 41.84740 -87.65725 10769 ft 316 kts 73°
2026-04-20 01:09 41.85230 -87.62761 11300 ft 334 kts 73°
2026-04-20 01:09 41.85738 -87.59696 11946 ft 346 kts 73°
2026-04-20 01:10 41.86265 -87.56521 12781 ft 352 kts 72°
2026-04-20 01:10 41.87358 -87.49976 14323 ft 366 kts 71°
2026-04-20 01:10 41.87921 -87.46609 15043 ft 372 kts 71°
2026-04-20 01:11 41.88488 -87.43203 15738 ft 377 kts 70°
2026-04-20 01:11 41.89064 -87.39735 16439 ft 383 kts 70°
2026-04-20 01:11 41.89646 -87.36222 17118 ft 388 kts 69°
2026-04-20 01:11 41.90237 -87.32656 17811 ft 393 kts 69°
2026-04-20 01:12 41.90831 -87.29051 18503 ft 398 kts 69°
2026-04-20 01:12 41.91434 -87.25398 19067 ft 403 kts 69°
2026-04-20 01:12 41.92041 -87.21704 19611 ft 408 kts 69°
2026-04-20 01:12 41.92658 -87.17952 20145 ft 413 kts 69°
2026-04-20 01:13 41.93270 -87.14211 20663 ft 418 kts 68°
2026-04-20 01:13 41.93898 -87.10374 21189 ft 423 kts 68°
2026-04-20 01:13 41.94492 -87.06463 21693 ft 434 kts 75°
2026-04-20 01:13 41.94616 -87.02361 22254 ft 444 kts 81°
2026-04-20 01:14 41.94684 -86.98175 22701 ft 450 kts 81°
2026-04-20 01:14 41.94752 -86.93954 23346 ft 453 kts 82°
2026-04-20 01:14 41.94816 -86.89727 23989 ft 453 kts 82°
2026-04-20 01:14 41.94879 -86.85472 24376 ft 458 kts 82°
2026-04-20 01:15 41.94940 -86.81183 24826 ft 460 kts 82°
2026-04-20 01:15 41.95001 -86.76872 25260 ft 463 kts 82°
2026-04-20 01:15 41.95060 -86.72548 25692 ft 465 kts 82°
2026-04-20 01:15 41.95118 -86.68183 26113 ft 468 kts 82°
2026-04-20 01:16 41.95174 -86.63808 26526 ft 471 kts 82°
2026-04-20 01:16 41.95230 -86.59394 26942 ft 473 kts 82°
2026-04-20 01:16 41.95284 -86.54957 27382 ft 476 kts 83°
2026-04-20 01:16 41.95336 -86.50492 27724 ft 480 kts 83°
2026-04-20 01:17 41.95386 -86.46057 28113 ft 483 kts 83°
2026-04-20 01:17 41.95436 -86.41537 28500 ft 485 kts 83°
2026-04-20 01:17 41.95484 -86.36998 28866 ft 488 kts 83°
2026-04-20 01:17 41.95530 -86.32431 29236 ft 491 kts 83°
2026-04-20 01:18 41.95576 -86.27829 29589 ft 493 kts 83°
2026-04-20 01:18 41.95598 -86.23201 29928 ft 498 kts 88°
2026-04-20 01:18 41.95038 -86.18570 30326 ft 506 kts 103°
2026-04-20 01:18 41.94143 -86.13984 30625 ft 508 kts 102°
2026-04-20 01:19 41.93264 -86.09379 30941 ft 510 kts 102°
2026-04-20 01:19 41.92364 -86.04768 31238 ft 511 kts 103°
2026-04-20 01:19 41.91451 -86.00138 31481 ft 513 kts 103°
2026-04-20 01:19 41.90533 -85.95491 31696 ft 517 kts 103°
2026-04-20 01:20 41.89608 -85.90828 31975 ft 518 kts 103°
2026-04-20 01:20 41.88677 -85.86140 32254 ft 520 kts 103°
2026-04-20 01:20 41.87740 -85.81435 32529 ft 521 kts 103°
2026-04-20 01:20 41.86801 -85.76733 32821 ft 523 kts 103°
2026-04-20 01:21 41.85859 -85.72023 33113 ft 524 kts 103°
2026-04-20 01:21 41.84922 -85.67352 33392 ft 525 kts 103°
2026-04-20 01:21 41.83970 -85.62616 33664 ft 526 kts 104°
2026-04-20 01:21 41.83015 -85.57875 33944 ft 527 kts 104°
2026-04-20 01:22 41.82058 -85.53136 34290 ft 526 kts 104°
2026-04-20 01:22 41.81101 -85.48407 34595 ft 525 kts 104°
2026-04-20 01:22 41.80145 -85.43694 34876 ft 524 kts 104°
2026-04-20 01:22 41.79186 -85.38980 35156 ft 524 kts 104°
2026-04-20 01:23 41.77263 -85.29557 35227 ft 525 kts 104°
2026-04-20 01:23 41.75313 -85.20040 35224 ft 534 kts 104°
2026-04-20 01:24 41.73327 -85.10398 35219 ft 538 kts 105°
2026-04-20 01:24 41.71327 -85.00736 35229 ft 538 kts 105°
2026-04-20 01:25 41.69336 -84.91154 35219 ft 538 kts 105°
2026-04-20 01:25 41.67326 -84.81517 35216 ft 538 kts 105°
2026-04-20 01:26 41.66603 -84.76623 35194 ft 535 kts 92°
2026-04-20 01:26 41.66426 -84.71661 35211 ft 535 kts 91°
2026-04-20 01:26 41.65959 -84.61716 35216 ft 536 kts 92°
2026-04-20 01:27 41.65524 -84.51768 35207 ft 536 kts 92°
2026-04-20 01:27 41.65083 -84.41804 35204 ft 536 kts 92°
2026-04-20 01:28 41.64635 -84.31859 35193 ft 536 kts 92°
2026-04-20 01:28 41.64177 -84.21901 35194 ft 537 kts 92°
2026-04-20 01:29 41.63711 -84.11944 35191 ft 537 kts 92°
2026-04-20 01:29 41.63236 -84.01985 35191 ft 537 kts 92°
2026-04-20 01:30 41.62753 -83.92030 35174 ft 537 kts 92°
2026-04-20 01:30 41.62260 -83.82061 35173 ft 537 kts 93°
2026-04-20 01:31 41.61763 -83.72173 35176 ft 537 kts 93°
2026-04-20 01:31 41.61240 -83.62216 35175 ft 537 kts 96°
2026-04-20 01:32 41.60439 -83.57367 35171 ft 534 kts 109°
2026-04-20 01:32 41.59360 -83.52606 35162 ft 537 kts 107°
2026-04-20 01:32 41.57251 -83.43028 35192 ft 537 kts 108°
2026-04-20 01:33 41.55105 -83.33463 35188 ft 537 kts 108°
2026-04-20 01:33 41.52952 -83.23916 35179 ft 537 kts 108°
2026-04-20 01:34 41.50790 -83.14372 35172 ft 537 kts 108°
2026-04-20 01:34 41.48618 -83.04822 35168 ft 538 kts 109°
2026-04-20 01:35 41.46439 -82.95282 35184 ft 537 kts 109°
2026-04-20 01:35 41.44264 -82.85802 35184 ft 537 kts 109°
2026-04-20 01:36 41.42438 -82.77872 35174 ft 537 kts 109°
2026-04-20 01:36 41.40260 -82.68445 35200 ft 523 kts 109°
2026-04-20 01:37 41.37483 -82.59701 35143 ft 503 kts 131°
2026-04-20 01:37 41.32816 -82.52870 35159 ft 500 kts 139°
2026-04-20 01:38 41.27989 -82.46208 35184 ft 500 kts 140°
2026-04-20 01:38 41.23154 -82.39644 35183 ft 499 kts 140°
2026-04-20 01:39 41.18298 -82.33073 35182 ft 498 kts 140°
2026-04-20 01:39 41.13434 -82.26507 35185 ft 498 kts 140°
2026-04-20 01:40 41.08574 -82.19961 35183 ft 498 kts 140°
2026-04-20 01:40 41.03710 -82.13424 35166 ft 498 kts 141°
2026-04-20 01:41 40.98839 -82.06891 35160 ft 498 kts 141°
2026-04-20 01:41 40.93967 -82.00372 35163 ft 498 kts 141°
2026-04-20 01:42 40.89122 -81.93905 35153 ft 497 kts 141°
2026-04-20 01:42 40.84246 -81.87409 35133 ft 497 kts 141°
2026-04-20 01:43 40.79373 -81.80934 35150 ft 496 kts 141°
2026-04-20 01:43 40.74505 -81.74478 35179 ft 496 kts 141°
2026-04-20 01:44 40.69632 -81.68029 35180 ft 496 kts 141°
2026-04-20 01:44 40.64757 -81.61593 35176 ft 495 kts 142°
2026-04-20 01:45 40.59888 -81.55177 35150 ft 494 kts 142°
2026-04-20 01:45 40.55052 -81.48820 35167 ft 495 kts 142°
2026-04-20 01:46 40.50178 -81.42427 35158 ft 495 kts 142°
2026-04-20 01:46 40.45305 -81.36049 35169 ft 494 kts 143°
2026-04-20 01:47 40.40425 -81.29675 35161 ft 494 kts 142°
2026-04-20 01:47 40.35549 -81.23321 35161 ft 494 kts 143°
2026-04-20 01:48 40.30665 -81.16971 35182 ft 495 kts 143°
2026-04-20 01:48 40.25807 -81.10665 35185 ft 494 kts 143°
2026-04-20 01:49 40.20915 -81.04331 35173 ft 494 kts 143°
2026-04-20 01:49 40.16024 -80.98011 35159 ft 494 kts 143°
2026-04-20 01:50 40.11126 -80.91694 35130 ft 494 kts 143°
2026-04-20 01:50 40.06231 -80.85392 35181 ft 494 kts 144°
2026-04-20 01:51 40.01409 -80.78967 35182 ft 496 kts 142°
2026-04-20 01:51 39.96641 -80.72469 35179 ft 495 kts 142°
2026-04-20 01:52 39.91895 -80.66033 35170 ft 495 kts 142°
2026-04-20 01:52 39.87120 -80.59570 35126 ft 495 kts 142°
2026-04-20 01:53 39.82345 -80.53122 35147 ft 494 kts 143°
2026-04-20 01:53 39.77577 -80.46696 35155 ft 492 kts 143°
2026-04-20 01:54 39.72822 -80.40303 35150 ft 492 kts 143°
2026-04-20 01:54 39.68058 -80.33910 35159 ft 492 kts 143°
2026-04-20 01:55 39.63287 -80.27521 35158 ft 492 kts 143°
2026-04-20 01:55 39.58556 -80.21211 35173 ft 488 kts 145°
2026-04-20 01:56 39.53804 -80.14868 35155 ft 491 kts 144°
2026-04-20 01:56 39.49049 -80.08533 34880 ft 483 kts 144°
2026-04-20 01:57 39.46721 -80.05441 34500 ft 478 kts 145°
2026-04-20 01:57 39.44408 -80.02374 33974 ft 475 kts 145°
2026-04-20 01:57 39.42099 -79.99311 33322 ft 475 kts 145°
2026-04-20 01:57 39.39796 -79.96260 32727 ft 473 kts 145°
2026-04-20 01:58 39.37509 -79.93233 32261 ft 469 kts 145°
2026-04-20 01:58 39.35238 -79.90230 31737 ft 464 kts 146°
2026-04-20 01:58 39.32994 -79.87264 31301 ft 459 kts 145°
2026-04-20 01:58 39.30903 -79.84131 30946 ft 467 kts 133°
2026-04-20 01:59 39.29472 -79.80326 30759 ft 476 kts 113°
2026-04-20 01:59 39.28889 -79.76139 30735 ft 471 kts 99°
2026-04-20 01:59 39.28591 -79.72058 30741 ft 455 kts 102°
2026-04-20 01:59 39.28250 -79.67991 30745 ft 450 kts 102°
2026-04-20 02:00 39.27585 -79.59794 30743 ft 469 kts 101°
2026-04-20 02:00 39.26904 -79.51353 30594 ft 478 kts 102°
2026-04-20 02:01 39.26559 -79.47089 30227 ft 475 kts 102°
2026-04-20 02:01 39.26215 -79.42855 29664 ft 475 kts 101°
2026-04-20 02:01 39.25869 -79.38629 29197 ft 470 kts 102°
2026-04-20 02:01 39.25527 -79.34454 28850 ft 465 kts 102°
2026-04-20 02:02 39.25185 -79.30321 28440 ft 466 kts 102°
2026-04-20 02:02 39.24832 -79.26093 27983 ft 481 kts 102°
2026-04-20 02:02 39.24469 -79.21759 27530 ft 488 kts 101°
2026-04-20 02:02 39.24099 -79.17387 27173 ft 492 kts 101°
2026-04-20 02:03 39.23727 -79.13007 26766 ft 491 kts 101°
2026-04-20 02:03 39.23355 -79.08639 26301 ft 487 kts 101°
2026-04-20 02:03 39.22984 -79.04311 25887 ft 484 kts 102°
2026-04-20 02:03 39.22612 -78.99989 25495 ft 484 kts 101°
2026-04-20 02:04 39.22225 -78.95691 25014 ft 481 kts 102°
2026-04-20 02:04 39.21811 -78.91408 24525 ft 480 kts 102°
2026-04-20 02:04 39.21404 -78.87158 24104 ft 476 kts 102°
2026-04-20 02:04 39.20999 -78.82925 23652 ft 474 kts 102°
2026-04-20 02:05 39.20594 -78.78713 23132 ft 472 kts 101°
2026-04-20 02:05 39.20194 -78.74580 22657 ft 469 kts 101°
2026-04-20 02:05 39.19785 -78.70410 22028 ft 470 kts 101°
2026-04-20 02:05 39.19373 -78.66216 21382 ft 471 kts 101°
2026-04-20 02:06 39.18959 -78.62022 20784 ft 472 kts 101°
2026-04-20 02:06 39.18543 -78.57818 20163 ft 473 kts 100°
2026-04-20 02:06 39.18125 -78.53609 19546 ft 474 kts 99°
2026-04-20 02:06 39.17703 -78.49380 18912 ft 476 kts 99°
2026-04-20 02:07 39.17281 -78.45153 18259 ft 472 kts 98°
2026-04-20 02:07 39.16866 -78.41022 17559 ft 461 kts 98°
2026-04-20 02:07 39.16431 -78.36975 16907 ft 448 kts 102°
2026-04-20 02:07 39.15591 -78.33212 16628 ft 427 kts 110°
2026-04-20 02:08 39.14686 -78.29590 16287 ft 423 kts 110°
2026-04-20 02:08 39.13794 -78.25999 15944 ft 419 kts 109°
2026-04-20 02:08 39.12908 -78.22437 15614 ft 415 kts 109°
2026-04-20 02:08 39.12033 -78.18916 15279 ft 411 kts 109°
2026-04-20 02:09 39.11163 -78.15428 14939 ft 407 kts 109°
2026-04-20 02:09 39.10310 -78.12013 14605 ft 404 kts 109°
2026-04-20 02:09 39.09438 -78.08588 14238 ft 401 kts 109°
2026-04-20 02:09 39.08573 -78.05190 13905 ft 397 kts 109°
2026-04-20 02:10 39.07715 -78.01824 13551 ft 394 kts 109°
2026-04-20 02:10 39.06861 -77.98485 13209 ft 390 kts 109°
2026-04-20 02:10 39.06025 -77.95218 12839 ft 377 kts 109°
2026-04-20 02:10 39.05220 -77.92079 12546 ft 362 kts 109°
2026-04-20 02:11 39.04445 -77.89058 12280 ft 349 kts 109°
2026-04-20 02:11 39.03683 -77.86095 12014 ft 348 kts 109°
2026-04-20 02:11 39.02924 -77.83146 11724 ft 347 kts 109°
2026-04-20 02:11 39.02165 -77.80201 11430 ft 346 kts 109°
2026-04-20 02:12 39.01413 -77.77287 11149 ft 342 kts 109°
2026-04-20 02:12 39.00667 -77.74399 10864 ft 339 kts 109°
2026-04-20 02:12 38.99925 -77.71529 10556 ft 336 kts 108°
2026-04-20 02:12 38.99192 -77.68697 10288 ft 332 kts 108°
2026-04-20 02:13 38.98472 -77.65931 10018 ft 328 kts 110°
2026-04-20 02:13 38.97569 -77.63261 9713 ft 325 kts 116°
2026-04-20 02:13 38.96629 -77.60644 9438 ft 320 kts 115°
2026-04-20 02:13 38.95714 -77.58059 9196 ft 315 kts 114°
2026-04-20 02:14 38.94823 -77.55518 8960 ft 310 kts 114°
2026-04-20 02:14 38.93946 -77.53005 8721 ft 306 kts 114°
2026-04-20 02:14 38.93084 -77.50530 8479 ft 302 kts 114°
2026-04-20 02:14 38.92229 -77.48073 8255 ft 301 kts 114°
2026-04-20 02:15 38.91373 -77.45619 8032 ft 300 kts 115°
2026-04-20 02:15 38.90389 -77.43259 7764 ft 300 kts 121°
2026-04-20 02:15 38.89356 -77.40919 7421 ft 301 kts 120°
2026-04-20 02:15 38.88334 -77.38578 7105 ft 300 kts 120°
2026-04-20 02:16 38.87323 -77.36245 6787 ft 299 kts 120°
2026-04-20 02:16 38.86317 -77.33918 6473 ft 297 kts 120°
2026-04-20 02:16 38.85319 -77.31602 6136 ft 296 kts 120°
2026-04-20 02:16 38.84300 -77.29308 5782 ft 296 kts 121°
2026-04-20 02:17 38.83271 -77.27028 5444 ft 295 kts 120°
2026-04-20 02:17 38.82257 -77.24777 5116 ft 295 kts 120°
2026-04-20 02:17 38.81239 -77.22516 4762 ft 290 kts 120°
2026-04-20 02:17 38.80243 -77.20302 4427 ft 284 kts 120°
2026-04-20 02:18 38.79262 -77.18126 4077 ft 279 kts 120°
2026-04-20 02:18 38.78301 -77.15993 3744 ft 274 kts 120°
2026-04-20 02:18 38.77351 -77.13888 3437 ft 268 kts 120°
2026-04-20 02:18 38.76158 -77.12141 3103 ft 260 kts 148°
2026-04-20 02:19 38.74492 -77.11383 2777 ft 252 kts 177°
2026-04-20 02:19 38.72769 -77.11230 2482 ft 244 kts 180°
2026-04-20 02:19 38.71087 -77.11113 2154 ft 239 kts 181°
2026-04-20 02:19 38.69469 -77.11008 2012 ft 225 kts 181°
2026-04-20 02:20 38.67941 -77.10893 2000 ft 219 kts 175°
2026-04-20 02:20 38.66561 -77.10092 1948 ft 222 kts 138°
2026-04-20 02:20 38.65749 -77.08445 1947 ft 220 kts 102°
2026-04-20 02:20 38.65548 -77.06523 2029 ft 219 kts 90°
2026-04-20 02:21 38.66525 -77.03147 1944 ft 200 kts 30°
2026-04-20 02:21 38.67727 -77.02467 1972 ft 182 kts
2026-04-20 02:21 38.68920 -77.02265 2027 ft 168 kts 356°
2026-04-20 02:22 38.70076 -77.02295 2023 ft 166 kts 352°
2026-04-20 02:22 38.71221 -77.02383 1986 ft 164 kts 351°
2026-04-20 02:22 38.72345 -77.02488 1974 ft 158 kts 351°
2026-04-20 02:22 38.73387 -77.02589 2017 ft 146 kts 350°
2026-04-20 02:23 38.74380 -77.02688 1904 ft 140 kts 350°
2026-04-20 02:23 38.75026 -77.02753 1790 ft 137 kts 350°
2026-04-20 02:23 38.75959 -77.02848 1643 ft 137 kts 351°
2026-04-20 02:23 38.76910 -77.02943 1470 ft 137 kts 351°
2026-04-20 02:24 38.77860 -77.03037 1288 ft 137 kts 351°
2026-04-20 02:24 38.78829 -77.03137 1103 ft 138 kts 352°
2026-04-20 02:24 38.79783 -77.03232 922 ft 140 kts 353°
2026-04-20 02:24 38.80765 -77.03332 732 ft 143 kts 354°
2026-04-20 02:25 38.81762 -77.03433 532 ft 144 kts 353°
2026-04-20 02:25 38.82764 -77.03530 335 ft 144 kts 354°
2026-04-20 02:25 38.83757 -77.03631 136 ft 144 kts 353°
2026-04-20 02:25 38.84728 -77.03733 27 ft 125 kts 355°
2026-04-20 02:26 38.85364 -77.03798 25 ft 61 kts 355°
2026-04-20 02:26 38.85537 -77.03898 29 ft 17 kts 307°
2026-04-20 02:26 38.85616 -77.03997 30 ft 0 kts 323°